Hourly Data Report for October 04, 2017

All times are specified in Local Standard Time (LST). Add 1 hour to adjust for Daylight Saving Time where and when it is observed.

ATIKOKAN (AUT)
ONTARIO

48°45'40.000" N
91°37'41.000" W
389.30 m
6020LPQ
71747
WCH

Download Data

Hourly Data (October 2017)
Hourly Data Report for October 4, 2017
Temp Definition
°C
Dew Point Temp Definition
°C
Rel Hum Definition
%
Wind Dir Definition
10's deg

Wind Spd Definition
km/h
Visibility Definition
km
Stn Press Definition
kPa
Hmdx Definition


Wind Chill Definition


Weather Definition


TIME
00:00 5.7 5.0 95   0   97.52     LegendNANA
01:00 5.9 5.4 96 0 1   97.49     LegendNANA
02:00 6.7 6.1 96 23 2   97.46     LegendNANA
03:00 7.9 7.3 96 21 3   97.39     LegendNANA
04:00 7.8 7.2 96 24 3   97.38     LegendNANA
05:00 7.7 6.5 92 23 5   97.36     LegendNANA
06:00 7.1 5.6 90 24 8   97.39     LegendNANA
07:00 6.5 5.3 92 24 6   97.43     LegendNANA
08:00 7.3 5.8 90 24 8   97.47     LegendNANA
09:00 7.9 6.2 89 27 7   97.47     LegendNANA
10:00 9.9 6.4 79 26 10   97.47     LegendNANA
11:00 10.3 5.4 71 25 12   97.45     LegendNANA
12:00 10.3 4.6 68 25 15   97.46     LegendNANA
13:00 10.4 4.5 67 26 10   97.41     LegendNANA
14:00 10.2 5.0 70 26 8   97.40     LegendNANA
15:00 10.2 4.5 68 26 14   97.38     LegendNANA
16:00 10.2 5.0 70 25 9   97.33     LegendNANA
17:00 10.2 5.2 71 25 9   97.28     LegendNANA
18:00 9.8 5.1 73 25 9   97.25     LegendNANA
19:00 10.0 5.2 72 25 12   97.28     LegendNANA
20:00 9.7 5.3 74 24 7   97.27     LegendNANA
21:00 9.5 5.1 74 24 9   97.26     LegendNANA
22:00 8.9 5.2 78 25 7   97.26     LegendNANA
23:00 8.4 4.8 78 25 9   97.21     LegendNANA

Notes on Data Quality.

Legend

  • E = Estimated
  • M = Missing
  • NA = Not Available
  • ‡ = Partner data that is not subject to review by the National Climate Archives
Date modified: